Regional Weather Roundup
Issued by NWS

Home | Current Version | Previous Version | Graphics & Text | Print | Product List | Glossary On
Versions: 1 2 3 4 5 6 7 8 9 10 11 12 13 14 15 16 17 18 19 20 21 22 23 24 25 26 27
000
ASUS45 KBOU 260710
RWRCO

WEATHER ROUNDUP FOR COLORADO
NATIONAL WEATHER SERVICE DENVER/BOULDER CO
100 AM MDT SAT MAY 26 2018

NOTE: "FAIR" INDICATES FEW OR NO CLOUDS BELOW 12000 FEET WITH NO
SIGNIFICANT WEATHER AND/OR OBSTRUCTIONS TO VISIBILITY.

COZ001>005-013-030-031-260800-
...NORTHWEST COLORADO...

CITY           SKY/WX    TMP DP  RH WIND       PRES   REMARKS
CRAIG          FAIR      45  36  70 CALM      30.04S
HAYDEN         FAIR      54  35  48 E13       30.07F
MEEKER         FAIR      50  25  37 E7        30.06F
RANGELY        FAIR      49  22  34 E6        29.96S
RABBIT EARS PA FAIR      52   9  17 SW7       30.35S
STEAMBOAT SPGS FAIR      49  34  55 CALM      30.10S
WALDEN         FAIR      41  28  60 NE3       30.18F
$$

COZ006>008-011-260800-
...WEST CENTRAL VALLEYS...

CITY           SKY/WX    TMP DP  RH WIND       PRES   REMARKS
GRAND JUNCTION FAIR      62  11  13 E9        29.92S
MONTROSE       FAIR      60  16  18 SE15      30.04F
EAGLE          FAIR      52  19  27 SE3       30.11F
RIFLE          FAIR      60  19  20 CALM      30.01S
DELTA          FAIR      62  12  14 E9        30.00S
NUCLA          FAIR      61  10  13 E14       30.08S
$$

COZ017>023-064>068-260800-
...SOUTHWEST COLORADO...

CITY           SKY/WX    TMP DP  RH WIND       PRES   REMARKS
DURANGO        FAIR      50  18  28 CALM      30.13S
CORTEZ         FAIR      46  21  37 NE8       30.07F
PAGOSA SPRINGS FAIR      45   8  22 CALM      30.21S
TELLURIDE      FAIR      55   9  16 SE6       30.30S
WOLF CREEK PAS FAIR      45   0  15 S14G22    30.52F
$$

COZ009-010-012-014-032>034-037-058>063-260800-
...CENTRAL COLORADO...

CITY           SKY/WX    TMP DP  RH WIND       PRES   REMARKS
ASPEN          FAIR      48  24  39 SW10      30.17F
BUENA VISTA    FAIR      53  21  28 W5        30.19S
COPPER MTN     FAIR      54  12  19 SE5       30.48F
BERTHOUD PASS  FAIR      43  32  65 S12       30.51F
COTTONWOOD PAS FAIR      61   3  10 SW6       30.33S
GUNNISON       FAIR      47  23  38 CALM      30.20F
GRANBY         FAIR      45  32  60 CALM      30.21F
KREMMLING      FAIR      46  30  53 CALM      30.17R
LEADVILLE      FAIR      44  21  40 CALM      30.32F
MONARCH PASS   FAIR      46   9  21 MISG      30.58F
SALIDA         FAIR      56  20  24 W8        30.24S
SUNLIGHT       FAIR      46   3  17 SW7       30.39F
WILKERSON PASS FAIR      48  32  53 S10G16    30.45F
$$

COZ069>075-260800-
...SAN LUIS VALLEY/SANGRE DE CRISTO MOUNTAINS...

CITY           SKY/WX    TMP DP  RH WIND       PRES   REMARKS
ALAMOSA        FAIR      45  30  55 E10       30.17S
DEL NORTE      FAIR      56  11  16 W20       30.19F
LA VETA PASS   FAIR      54   9  16 SW17      30.45F
SAGUACHE       NOT AVBL
$$

COZ035-036-038>040-260800-
...NORTHERN COLORADO FRONT RANGE...

CITY           SKY/WX    TMP DP  RH WIND       PRES   REMARKS
DENVER INTL AP FAIR      67  40  37 S12       29.99F
AURORA         NOT AVBL
FRONT RANGE AP FAIR      67  42  39 SW12      30.01S
ERIE MUNI ARPT FAIR      56  43  62 CALM      30.02S
BOULDER MUN AP FAIR      66  36  32 W5        29.97F
CENTENNIAL     FAIR      69  44  40 SW10G20   30.03F
BROOMFIELD     FAIR      63  37  39 W6        30.00F
FORT COLLINS   FAIR      57  49  74 NW5       29.96F
LONGMONT       FAIR      61  44  53 SW5       29.98F
$$

COZ041-046-047-076>085-087-088-260800-
...PIKES PEAK/PALMER DIVIDE AND SOUTHERN FOOTHILLS...

CITY           SKY/WX    TMP DP  RH WIND       PRES   REMARKS
COLO. SPRINGS  FAIR      63  45  51 NE6       30.09F
A. F. ACADEMY  FAIR      64  44  47 SE7       30.10F
SCHRIEVER AFB  NOT AVBL
CHEYENNE MTN   FAIR      64  42  45 NW6       30.07F
ELLICOTT         N/A    N/A N/A N/A SE12      30.05F
FALCON         FAIR      60  42  50 CALM      30.14F
FORT CARSON    FAIR      62  44  52 N7        30.04F
LIMON          FAIR      50  45  83 CALM      30.02F
MONUMENT HILL  FAIR      61  43  51 S18G24    30.13F
CANON CITY     CLEAR     66  45  45 CALM      29.99F
WALSENBURG     FAIR      59  21  23 SE5       30.03F
TRINIDAD       FAIR      67  33  28 S8        30.02F
$$

COZ042>045-048>051-090-091-260800-
...NORTHEAST COLORADO...

CITY           SKY/WX    TMP DP  RH WIND       PRES   REMARKS
GREELEY ARPT   FAIR      61  47  59 CALM      29.95F
AKRON          FAIR      66  49  54 S10       29.96F
BURLINGTON     FAIR      62  48  60 S13       29.95F
WRAY           FAIR      57  50  77 W5        29.91F
YUMA           FAIR      61  43  51 SW8       29.94S
STERLING       FAIR      59  48  67 N5        29.93S
HOLYOKE        FAIR      63  50  63 W8        29.92F
FORT MORGAN    FAIR      62  46  56 CALM      29.96F
$$

COZ086-089-092>099-260800-
...SOUTHEAST COLORADO...

CITY           SKY/WX    TMP DP  RH WIND       PRES   REMARKS
PUEBLO         FAIR      68  47  46 E12       29.93F
LA JUNTA       FAIR      73  49  42 SE10      29.93F
LAMAR          FAIR      71  59  65 S15       29.90F
SPRINGFIELD      N/A     62  57  83 S12       29.98S
$$




USA.gov is the U.S. government's official web portal to all federal, state and local government web resources and services.